Location: Alphen
(52.1351°N, 4.6549°E)
Time: 02:02:52
(UTC+00:00)

Cosmos 2228 - Pass Details

Date: 27 January 2021
Orbit: 589 x 617 km, 82.5° (Epoch: 26 February)

Event Time Altitude Azimuth Distance (km) Brightness Sun altitude
Rises 05:12:22 0° 173° (S) 2,817 6.6 -20.8°
Reaches altitude 10° 05:14:37 10° 167° (SSE) 1,918 5.8 -20.4°
Maximum altitude 05:18:40 47° 94° (E) 791 4.0 -19.8°
Drops below altitude 10° 05:22:45 10° 21° (NNE) 1,931 5.8 -19.2°
Sets 05:25:01 0° 16° (NNE) 2,839 6.6 -18.8°
